Starlink 6310

operational
NORAD ID: 56533 Int'l Des: 2023-065 Owner: SPXS Country: US Constellation: starlink
LEOCIRCULAR

Starlink 6310について

説明を読み込み中...

リアルタイム位置

3D地球を読み込み中...

次回通過

高度履歴

Altitude vs Time

uPlot chart will show altitude changes over time

軌道要素

1 56533U 23065AG 26063.16670139 .00042711 00000-0 28317-2 0 9996
2 56533 43.0010 227.4610 0002285 255.8577 62.0037 15.06607549 5769
Epoch: Mar 4, 2026 • Age: 11 hours

現在のステータス

高度 546.6 km
速度 7.59 km/s
衛星直下点 0.33°N, 94.2°W
打ち上げ日 May 14, 2023
運用期間 2.8 years
タイプ internet

技術仕様

分類 Payload
質量 305.00 kg
乾燥質量 290.00 kg
総質量 305.00 kg
長さ 0.20 m
直径 2.80 m
スパン 9.00 m
形状 Box + pan
製造者 SPXS
バスタイプ Starlink
フェーズステータス In Orbit
所有者/国 SPXS/US

大規模コンステレーション

Loading constellations...